Wind_Speed
12 15 16 16 17 18 19 20 21 23 21 22 18 16 16 16 15 15 14 16 20 18 18 19 18 12 11 13 22 23 31 38
12 15 17 18 19 21 21 23 22 25 23 25 19 20 23 18 18 17 18 19 16 20 21 20 18 16 13 14 17 22 23 29
15 18 19 20 20 22 23 23 22 23 21 21 17 22 17 22 18 20 20 18 19 19 19 20 18 18 16 16 17 20 26 24
11 15 17 18 21 22 23 22 24 22 23 22 21 21 20 21 23 23 22 23 22 20 20 21 20 19 21 17 18 21 18 27
9 13 16 17 19 18 21 20 22 21 22 23 23 23 25 25 26 26 28 23 23 22 21 21 21 19 22 22 19 22 24 21
7 10 13 13 16 17 19 19 20 21 21 21 22 23 24 26 27 28 29 26 23 22 22 23 22 20 21 23 24 21 22 26
7 8 11 13 15 17 18 20 20 21 21 21 21 22 24 26 26 27 25 26 26 24 23 23 23 22 22 23 24 25 24 25
7 10 14 15 17 19 19 20 21 21 22 21 21 21 22 24 24 24 27 25 25 25 25 25 26 25 23 24 25 24 25 23
6 9 12 13 15 17 18 20 21 22 22 22 20 21 21 22 22 23 22 25 26 26 25 26 26 25 29 27 25 23 20 25
6 8 10 12 14 16 18 19 20 21 23 22 21 21 22 21 20 20 21 23 26 24 22 21 21 24 21 25 25 21 21 21
5 7 10 11 12 14 16 18 19 20 20 21 21 21 22 21 21 24 25 27 27 25 23 20 17 15 20 13 22 21 19 18
3 6 8 10 11 14 16 17 19 19 20 20 21 22 24 25 26 29 30 31 30 29 28 25 21 20 22 21 10 14 13 14
2 3 6 8 11 14 15 16 17 17 18 18 21 23 26 29 30 30 32 31 33 33 31 31 29 29 29 28 28 27 28 26
3 3 5 8 11 12 15 16 16 17 18 19 19 22 26 29 31 33 33 33 32 36 34 35 35 33 32 32 31 31 33 31
3 3 4 6 8 11 13 14 16 18 21 19 20 23 26 28 29 31 32 34 36 36 37 36 40 39 36 35 34 33 34 35
4 3 4 5 8 10 11 12 15 18 20 20 20 21 23 26 29 29 31 34 36 35 38 41 39 42 42 37 35 36 34 35
6 5 6 7 7 8 10 9 12 16 20 20 19 22 27 26 27 28 31 32 34 37 39 40 41 41 38 38 38 37 39 37
8 6 6 6 6 7 9 8 10 13 17 18 20 22 26 26 24 28 29 31 33 36 38 39 41 39 34 34 35 38 40 40
9 9 8 6 6 7 9 9 13 13 13 15 20 25 26 25 26 26 26 26 29 31 34 34 37 40 34 29 29 33 35 37
Wind_Direction
20 17 15 10 7 3 360 358 354 351 346 342 336 336 328 331 325 325 323 311 306 304 298 293 291 286 273 268 260 248 247 236
15 12 9 8 7 5 2 356 355 353 350 346 338 333 326 324 323 321 318 315 310 301 297 294 289 282 269 263 256 256 242 237
7 5 5 6 2 1 358 355 352 351 349 340 329 324 318 317 317 316 315 312 309 302 294 291 288 282 270 258 253 255 242 228
2 0 1 359 359 357 352 350 349 349 344 339 333 326 321 320 321 317 314 311 305 300 293 286 282 275 272 257 247 247 254 238
4 359 359 358 355 350 348 348 347 346 344 340 336 329 323 321 318 315 313 308 301 298 293 289 282 276 272 270 254 245 248 257
2 359 355 352 352 348 348 349 348 347 345 340 334 326 322 319 317 316 315 311 303 295 292 287 279 277 271 270 269 257 248 249
4 0 356 356 355 356 355 351 352 349 345 340 336 330 326 323 320 317 313 309 306 300 290 284 282 279 278 275 270 265 263 258
6 5 4 1 1 360 358 355 351 350 347 343 341 337 331 325 323 321 318 314 310 306 302 292 280 277 274 270 269 269 265 267
15 9 2 360 359 359 359 356 353 352 350 348 347 344 339 335 334 331 328 329 323 317 312 301 291 284 277 273 263 266 266 261
11 8 4 0 0 1 0 357 353 355 355 352 352 350 351 349 346 345 343 344 344 336 330 319 306 293 286 269 259 258 265 264
12 9 0 2 2 5 5 3 358 357 1 2 359 360 2 0 6 3 358 355 358 1 358 349 339 331 330 276 246 250 254 259
15 0 6 7 13 18 12 8 4 3 8 8 9 9 11 13 13 10 8 8 9 14 15 11 11 16 27 40 38 254 250 258
78 15 15 15 23 24 21 14 12 11 12 14 16 21 26 19 15 11 12 11 18 20 22 24 25 30 38 44 48 49 52 43
119 63 28 24 29 27 25 20 18 24 25 22 21 24 30 24 20 17 17 18 22 25 28 31 30 33 40 46 50 51 51 48
140 88 52 40 38 35 30 27 27 34 41 31 25 28 30 28 24 23 22 25 24 25 30 35 37 36 38 43 48 51 53 50
148 122 87 57 44 41 39 33 39 43 45 39 28 32 36 36 31 30 26 30 28 30 33 35 36 37 36 39 46 49 49 51
155 139 102 72 54 49 50 38 42 46 49 42 40 43 46 37 35 33 32 33 32 33 36 36 37 36 36 40 45 44 45 44
158 136 112 89 72 63 64 55 56 53 50 49 49 50 51 44 41 39 34 32 33 34 34 37 38 36 37 41 45 47 46 42
152 139 124 111 96 82 78 70 66 60 54 49 53 57 55 50 48 42 41 42 41 39 38 39 41 37 36 41 47 51 51 48
Height
844 842 839 837 833 829 826 822 817 813 808 804 800 797 794 791 789 787 784 781 779 777 774 772 772 772 771 769 767 767 767 764
843 841 839 835 833 829 825 822 818 813 808 804 800 797 793 790 786 784 781 778 776 772 769 767 766 766 767 765 764 762 761 763
842 840 838 836 833 830 827 824 820 815 811 808 804 798 792 788 784 781 778 775 772 769 766 763 761 759 759 760 759 758 757 758
843 841 839 836 833 830 828 823 820 816 813 807 802 797 792 786 782 778 775 772 768 765 761 758 757 754 750 754 754 752 749 749
842 841 839 838 835 833 828 825 821 816 812 808 802 797 790 786 781 775 771 768 763 760 755 753 750 748 744 742 746 746 745 741
842 841 839 837 835 832 829 825 820 815 811 808 802 796 790 783 778 771 766 761 758 755 751 748 746 744 740 736 733 736 736 737
842 841 839 836 835 830 827 825 820 815 810 806 801 795 788 782 776 769 763 757 752 749 746 742 738 735 733 729 727 725 727 727
840 839 837 835 833 830 827 824 819 814 809 805 798 793 787 781 775 767 761 754 749 744 740 736 731 728 726 724 722 719 720 718
839 839 838 836 833 831 828 824 818 813 809 802 796 792 787 780 774 768 761 754 746 740 735 730 726 722 718 717 715 715 714 713
839 838 838 836 834 831 828 824 818 813 808 802 796 792 786 780 774 767 761 754 746 739 732 726 720 715 711 709 709 709 708 707
839 839 839 837 835 831 829 824 819 815 809 803 798 793 787 781 774 767 761 754 746 738 731 724 717 712 706 698 702 703 704 703
839 840 839 838 835 831 829 825 820 816 811 805 799 794 789 781 775 768 762 755 747 740 732 724 718 712 705 700 698 698 699 699
838 839 838 837 834 832 830 827 823 818 813 808 803 797 790 784 778 773 766 758 751 743 735 728 721 714 708 704 702 700 699 698
837 837 838 836 834 832 830 828 825 819 815 809 805 800 793 788 783 777 770 762 755 748 740 733 727 721 717 712 709 706 704 704
835 836 836 835 834 832 831 829 826 821 816 813 809 802 797 792 787 782 775 769 760 754 747 741 735 730 725 722 718 716 713 712
833 835 835 834 833 832 831 830 827 823 819 816 812 807 801 796 791 787 782 775 770 764 756 748 743 739 736 731 729 726 724 720
831 833 833 833 834 833 832 831 828 826 822 819 816 811 806 802 797 793 788 783 778 772 765 761 755 752 750 744 738 734 732 729
829 832 833 834 835 834 833 833 830 829 826 824 820 816 811 807 804 799 795 790 785 780 775 772 768 766 763 757 751 744 741 741
827 830 833 835 835 835 834 834 831 831 830 827 824 820 816 813 809 807 804 800 796 792 788 784 781 778 774 769 764 759 756 754